Location: Newark
(33.6333°S, 78.8500°W)
Time: 13:49:44
(UTC+00:00)

Tiros 1 despin weight - Pass Details

Date: 21 September 2019
Orbit: 593 x 643 km, 48.2° (Epoch: 21 October)

Event Time Altitude Azimuth Distance (km) Brightness Sun altitude
Rises 10:21:16 0° 226° (SW) 2,953 - -10.2°
Exits shadow 10:21:32 - 226° (SW) 2,858 ? -10.2°
Reaches altitude 10° 10:23:50 10° 216° (SW) 2,047 ? -9.7°
Maximum altitude 10:28:03 31° 152° (SSE) 1,129 ? -8.8°
Drops below altitude 10° 10:32:16 10° 89° (E) 2,045 ? -8.0°
Sets 10:34:49 0° 79° (E) 2,950 ? -7.4°
